Time,TemperatureF,DewpointF,PressureIn,WindDirection,WindDirectionDegrees,WindSpeedMPH,WindSpeedGustMPH,Humidity,HourlyPrecipIn,Conditions,Clouds,dailyrainin,SoftwareType,DateUTC
2013-05-10 00:07:00,73.4,71.0,30.08,East,84,0.0,-999.0,91,-99.99,,,0.00,weatherlink.com 1.10,2013-05-10 04:07:00,
2013-05-10 00:22:00,73.1,70.0,30.08,East,84,0.0,-999.0,91,-99.99,,,0.00,weatherlink.com 1.10,2013-05-10 04:22:00,
2013-05-10 01:14:00,70.9,69.0,30.08,East,84,0.0,-999.0,94,-99.99,,,0.00,weatherlink.com 1.10,2013-05-10 05:14:00,
2013-05-10 01:23:00,70.8,69.0,30.07,East,84,0.0,-999.0,95,-99.99,,,0.00,weatherlink.com 1.10,2013-05-10 05:23:00,
2013-05-10 01:38:00,70.4,69.0,30.06,East,84,0.0,-999.0,95,-99.99,,,0.00,weatherlink.com 1.10,2013-05-10 05:38:00,
2013-05-10 01:53:00,70.8,70.0,30.06,East,84,0.0,-999.0,96,-99.99,,,0.00,weatherlink.com 1.10,2013-05-10 05:53:00,
2013-05-10 02:08:00,70.6,70.0,30.05,East,84,0.0,-999.0,96,-99.99,,,0.00,weatherlink.com 1.10,2013-05-10 06:08:00,
2013-05-10 02:23:00,70.6,70.0,30.05,East,84,0.0,-999.0,97,-99.99,,,0.00,weatherlink.com 1.10,2013-05-10 06:23:00,
2013-05-10 02:38:00,70.5,70.0,30.04,East,84,0.0,-999.0,97,-99.99,,,0.00,weatherlink.com 1.10,2013-05-10 06:38:00,
2013-05-10 02:53:00,70.4,70.0,30.04,East,84,0.0,-999.0,97,-99.99,,,0.00,weatherlink.com 1.10,2013-05-10 06:53:00,
2013-05-10 03:08:00,70.5,70.0,30.03,East,84,0.0,-999.0,97,-99.99,,,0.00,weatherlink.com 1.10,2013-05-10 07:08:00,
2013-05-10 03:23:00,69.6,69.0,30.03,East,84,0.0,-999.0,97,-99.99,,,0.00,weatherlink.com 1.10,2013-05-10 07:23:00,
2013-05-10 03:38:00,69.3,69.0,30.03,East,84,0.0,-999.0,97,-99.99,,,0.00,weatherlink.com 1.10,2013-05-10 07:38:00,
2013-05-10 03:53:00,69.0,68.0,30.03,East,84,0.0,-999.0,97,-99.99,,,0.00,weatherlink.com 1.10,2013-05-10 07:53:00,
2013-05-10 04:08:00,68.7,68.0,30.03,East,84,0.0,-999.0,97,-99.99,,,0.00,weatherlink.com 1.10,2013-05-10 08:08:00,
2013-05-10 04:23:00,68.9,68.0,30.03,East,84,0.0,-999.0,98,-99.99,,,0.00,weatherlink.com 1.10,2013-05-10 08:23:00,
2013-05-10 04:38:00,68.9,68.0,30.03,East,84,0.0,-999.0,98,-99.99,,,0.00,weatherlink.com 1.10,2013-05-10 08:38:00,
2013-05-10 04:53:00,68.6,68.0,30.03,East,84,0.0,-999.0,98,-99.99,,,0.00,weatherlink.com 1.10,2013-05-10 08:53:00,
2013-05-10 05:08:00,68.7,68.0,30.02,East,84,0.0,-999.0,98,-99.99,,,0.00,weatherlink.com 1.10,2013-05-10 09:08:00,
2013-05-10 05:23:00,68.5,68.0,30.02,East,84,0.0,-999.0,98,-99.99,,,0.00,weatherlink.com 1.10,2013-05-10 09:23:00,
2013-05-10 05:38:00,68.6,68.0,30.02,East,84,0.0,-999.0,98,-99.99,,,0.00,weatherlink.com 1.10,2013-05-10 09:38:00,
2013-05-10 05:53:00,68.5,68.0,30.02,East,84,0.0,-999.0,98,-99.99,,,0.00,weatherlink.com 1.10,2013-05-10 09:53:00,
2013-05-10 06:08:00,68.3,68.0,30.03,East,84,0.0,-999.0,98,-99.99,,,0.00,weatherlink.com 1.10,2013-05-10 10:08:00,
2013-05-10 06:23:00,67.9,67.0,30.03,East,84,0.0,-999.0,98,-99.99,,,0.00,weatherlink.com 1.10,2013-05-10 10:23:00,
2013-05-10 06:38:00,68.1,68.0,30.03,East,84,0.0,-999.0,98,-99.99,,,0.00,weatherlink.com 1.10,2013-05-10 10:38:00,
2013-05-10 06:53:00,68.3,68.0,30.03,East,84,0.0,-999.0,98,-99.99,,,0.00,weatherlink.com 1.10,2013-05-10 10:53:00,
2013-05-10 07:08:00,69.1,69.0,30.03,East,84,0.0,-999.0,99,-99.99,,,0.00,weatherlink.com 1.10,2013-05-10 11:08:00,
2013-05-10 07:23:00,71.9,72.0,30.03,East,84,0.0,-999.0,99,-99.99,,,0.00,weatherlink.com 1.10,2013-05-10 11:23:00,
2013-05-10 07:38:00,73.5,73.0,30.04,East,84,0.0,-999.0,99,-99.99,,,0.00,weatherlink.com 1.10,2013-05-10 11:38:00,
2013-05-10 07:53:00,74.9,74.0,30.03,East,84,2.0,-999.0,98,-99.99,,,0.00,weatherlink.com 1.10,2013-05-10 11:53:00,
2013-05-10 08:08:00,76.2,75.0,30.04,East,84,0.0,-999.0,96,-99.99,,,0.00,weatherlink.com 1.10,2013-05-10 12:08:00,
2013-05-10 08:23:00,77.7,75.0,30.04,East,84,0.0,-999.0,92,-99.99,,,0.00,weatherlink.com 1.10,2013-05-10 12:23:00,
2013-05-10 08:38:00,78.7,75.0,30.04,ESE,108,4.0,-999.0,88,-99.99,,,0.00,weatherlink.com 1.10,2013-05-10 12:38:00,
2013-05-10 08:53:00,79.2,75.0,30.04,East,95,3.0,-999.0,86,-99.99,,,0.00,weatherlink.com 1.10,2013-05-10 12:53:00,
2013-05-10 09:09:00,79.9,74.0,30.04,SE,130,6.0,-999.0,81,-99.99,,,0.00,weatherlink.com 1.10,2013-05-10 13:09:00,
2013-05-10 09:24:00,80.9,74.0,30.04,ESE,119,6.0,-999.0,79,-99.99,,,0.00,weatherlink.com 1.10,2013-05-10 13:24:00,
2013-05-10 09:39:00,81.5,74.0,30.04,East,98,5.0,-999.0,78,-99.99,,,0.00,weatherlink.com 1.10,2013-05-10 13:39:00,
2013-05-10 09:54:00,82.2,75.0,30.05,ESE,111,5.0,-999.0,79,-99.99,,,0.00,weatherlink.com 1.10,2013-05-10 13:54:00,
2013-05-10 10:09:00,82.3,74.0,30.05,ESE,106,4.0,-999.0,75,-99.99,,,0.00,weatherlink.com 1.10,2013-05-10 14:09:00,
2013-05-10 10:24:00,83.4,74.0,30.05,ESE,114,6.0,-999.0,74,-99.99,,,0.00,weatherlink.com 1.10,2013-05-10 14:24:00,
2013-05-10 10:39:00,83.7,75.0,30.05,SE,132,5.0,-999.0,75,-99.99,,,0.00,weatherlink.com 1.10,2013-05-10 14:39:00,
2013-05-10 10:54:00,82.9,73.0,30.05,SE,133,6.0,-999.0,73,-99.99,,,0.00,weatherlink.com 1.10,2013-05-10 14:54:00,
2013-05-10 11:09:00,83.7,74.0,30.05,SSE,147,9.0,-999.0,73,-99.99,,,0.00,weatherlink.com 1.10,2013-05-10 15:09:00,
2013-05-10 11:24:00,83.7,74.0,30.05,ESE,113,6.0,-999.0,72,-99.99,,,0.00,weatherlink.com 1.10,2013-05-10 15:24:00,
2013-05-10 11:39:00,84.5,74.0,30.04,SSE,157,14.0,-999.0,71,-99.99,,,0.00,weatherlink.com 1.10,2013-05-10 15:39:00,
2013-05-10 11:54:00,84.5,73.0,30.05,East,100,11.0,-999.0,69,-99.99,,,0.00,weatherlink.com 1.10,2013-05-10 15:54:00,
2013-05-10 12:09:00,84.6,74.0,30.04,SE,132,6.0,-999.0,70,-99.99,,,0.00,weatherlink.com 1.10,2013-05-10 16:09:00,
2013-05-10 12:24:00,84.8,74.0,30.03,ESE,102,12.0,-999.0,70,-99.99,,,0.00,weatherlink.com 1.10,2013-05-10 16:24:00,
2013-05-10 12:39:00,85.2,74.0,30.03,ESE,123,4.0,-999.0,70,-99.99,,,0.00,weatherlink.com 1.10,2013-05-10 16:39:00,
2013-05-10 12:54:00,85.1,75.0,30.03,ESE,113,14.0,-999.0,71,-99.99,,,0.00,weatherlink.com 1.10,2013-05-10 16:54:00,
2013-05-10 13:09:00,84.8,74.0,30.03,SE,130,11.0,-999.0,70,-99.99,,,0.00,weatherlink.com 1.10,2013-05-10 17:09:00,
2013-05-10 13:24:00,85.2,74.0,30.03,East,94,0.0,-999.0,70,-99.99,,,0.00,weatherlink.com 1.10,2013-05-10 17:24:00,
2013-05-10 13:39:00,86.2,74.0,30.02,SE,144,0.0,-999.0,68,-99.99,,,0.00,weatherlink.com 1.10,2013-05-10 17:39:00,
2013-05-10 13:54:00,85.6,74.0,30.02,ESE,110,1.0,-999.0,68,-99.99,,,0.00,weatherlink.com 1.10,2013-05-10 17:54:00,
2013-05-10 14:09:00,85.6,73.0,30.02,ESE,113,0.0,-999.0,65,-99.99,,,0.00,weatherlink.com 1.10,2013-05-10 18:09:00,
2013-05-10 14:24:00,85.4,74.0,30.02,East,84,8.0,-999.0,68,-99.99,,,0.00,weatherlink.com 1.10,2013-05-10 18:24:00,
2013-05-10 14:40:00,84.7,75.0,30.00,SE,130,12.0,-999.0,73,-99.99,,,0.00,weatherlink.com 1.10,2013-05-10 18:40:00,
2013-05-10 14:55:00,82.7,73.0,30.00,ESE,117,10.0,-999.0,73,-99.99,,,0.00,weatherlink.com 1.10,2013-05-10 18:55:00,
2013-05-10 15:10:00,81.2,74.0,30.00,ESE,122,9.0,-999.0,78,-99.99,,,0.00,weatherlink.com 1.10,2013-05-10 19:10:00,
2013-05-10 15:25:00,80.3,74.0,29.99,SE,136,0.0,-999.0,81,-99.99,,,0.00,weatherlink.com 1.10,2013-05-10 19:25:00,
2013-05-10 15:40:00,77.9,75.0,30.01,SSE,153,6.0,-999.0,89,-99.99,,,0.03,weatherlink.com 1.10,2013-05-10 19:40:00,
2013-05-10 15:55:00,73.5,71.0,30.01,ESE,112,0.0,-999.0,92,-99.99,,,0.13,weatherlink.com 1.10,2013-05-10 19:55:00,
2013-05-10 16:10:00,75.3,74.0,30.00,ESE,116,0.0,-999.0,96,-99.99,,,0.14,weatherlink.com 1.10,2013-05-10 20:10:00,
2013-05-10 16:25:00,78.2,75.0,29.99,ESE,114,3.0,-999.0,91,-99.99,,,0.14,weatherlink.com 1.10,2013-05-10 20:25:00,
2013-05-10 16:40:00,80.2,77.0,29.98,ESE,108,6.0,-999.0,89,-99.99,,,0.14,weatherlink.com 1.10,2013-05-10 20:40:00,
2013-05-10 16:55:00,80.1,76.0,29.99,ESE,104,9.0,-999.0,88,-99.99,,,0.14,weatherlink.com 1.10,2013-05-10 20:55:00,
2013-05-10 17:10:00,80.5,77.0,29.97,ESE,111,4.0,-999.0,89,-99.99,,,0.14,weatherlink.com 1.10,2013-05-10 21:10:00,
2013-05-10 17:25:00,80.7,77.0,29.97,ESE,105,6.0,-999.0,87,-99.99,,,0.14,weatherlink.com 1.10,2013-05-10 21:25:00,
2013-05-10 17:40:00,80.5,76.0,29.97,East,101,0.0,-999.0,86,-99.99,,,0.14,weatherlink.com 1.10,2013-05-10 21:40:00,
2013-05-10 17:55:00,80.3,75.0,29.96,SE,133,6.0,-999.0,84,-99.99,,,0.14,weatherlink.com 1.10,2013-05-10 21:55:00,
2013-05-10 18:10:00,80.1,75.0,29.96,SE,133,0.0,-999.0,83,-99.99,,,0.14,weatherlink.com 1.10,2013-05-10 22:10:00,
2013-05-10 18:25:00,79.8,75.0,29.97,SE,136,0.0,-999.0,84,-99.99,,,0.14,weatherlink.com 1.10,2013-05-10 22:25:00,
2013-05-10 18:40:00,79.3,74.0,29.97,SE,131,6.0,-999.0,84,-99.99,,,0.14,weatherlink.com 1.10,2013-05-10 22:40:00,
2013-05-10 18:55:00,78.5,74.0,29.97,SE,140,5.0,-999.0,86,-99.99,,,0.14,weatherlink.com 1.10,2013-05-10 22:55:00,
2013-05-10 19:10:00,78.2,74.0,29.97,ESE,115,9.0,-999.0,87,-99.99,,,0.14,weatherlink.com 1.10,2013-05-10 23:10:00,
2013-05-10 19:25:00,78.3,74.0,29.98,SE,130,7.0,-999.0,87,-99.99,,,0.14,weatherlink.com 1.10,2013-05-10 23:25:00,
2013-05-10 19:40:00,78.0,74.0,29.98,ESE,121,3.0,-999.0,88,-99.99,,,0.14,weatherlink.com 1.10,2013-05-10 23:40:00,
2013-05-10 19:55:00,77.9,74.0,29.98,South,173,4.0,-999.0,87,-99.99,,,0.14,weatherlink.com 1.10,2013-05-10 23:55:00,
2013-05-10 20:10:00,78.2,74.0,29.99,SE,143,0.0,-999.0,87,-99.99,,,0.14,weatherlink.com 1.10,2013-05-11 00:10:00,
2013-05-10 20:25:00,78.0,74.0,30.00,SW,221,6.0,-999.0,87,-99.99,,,0.14,weatherlink.com 1.10,2013-05-11 00:25:00,
2013-05-10 20:40:00,76.5,69.0,29.99,SW,216,0.0,-999.0,78,-99.99,,,0.14,weatherlink.com 1.10,2013-05-11 00:40:00,
2013-05-10 20:55:00,75.6,68.0,29.99,WSW,241,0.0,-999.0,78,-99.99,,,0.14,weatherlink.com 1.10,2013-05-11 00:55:00,
2013-05-10 21:10:00,74.6,69.0,29.98,WSW,244,0.0,-999.0,82,-99.99,,,0.14,weatherlink.com 1.10,2013-05-11 01:10:00,
2013-05-10 21:25:00,73.8,69.0,29.99,SSW,210,0.0,-999.0,84,-99.99,,,0.14,weatherlink.com 1.10,2013-05-11 01:25:00,
2013-05-10 21:40:00,72.8,68.0,29.99,SSW,209,0.0,-999.0,86,-99.99,,,0.14,weatherlink.com 1.10,2013-05-11 01:40:00,
2013-05-10 21:55:00,71.8,69.0,29.99,SSW,209,0.0,-999.0,89,-99.99,,,0.14,weatherlink.com 1.10,2013-05-11 01:55:00,
2013-05-10 22:10:00,71.2,69.0,29.98,SSW,209,0.0,-999.0,91,-99.99,,,0.14,weatherlink.com 1.10,2013-05-11 02:10:00,
2013-05-10 22:25:00,71.1,68.0,29.99,SSW,209,0.0,-999.0,91,-99.99,,,0.14,weatherlink.com 1.10,2013-05-11 02:25:00,
2013-05-10 22:40:00,70.6,69.0,29.99,SSW,209,0.0,-999.0,93,-99.99,,,0.14,weatherlink.com 1.10,2013-05-11 02:40:00,
2013-05-10 22:55:00,70.3,69.0,30.00,SSW,209,0.0,-999.0,94,-99.99,,,0.14,weatherlink.com 1.10,2013-05-11 02:55:00,
2013-05-10 23:10:00,70.1,68.0,30.00,SSW,209,0.0,-999.0,94,-99.99,,,0.14,weatherlink.com 1.10,2013-05-11 03:10:00,
2013-05-10 23:25:00,70.3,69.0,30.00,SSW,209,0.0,-999.0,95,-99.99,,,0.14,weatherlink.com 1.10,2013-05-11 03:25:00,
2013-05-10 23:40:00,70.5,69.0,30.00,SSW,209,0.0,-999.0,94,-99.99,,,0.14,weatherlink.com 1.10,2013-05-11 03:40:00,
2013-05-10 23:55:00,69.9,68.0,30.01,SSW,209,0.0,-999.0,94,-99.99,,,0.14,weatherlink.com 1.10,2013-05-11 03:55:00,